When you browse on this site, cookies collect data to enhance your experience and personalize the content and advertising you see.
Visit our Privacy Policy to learn more. By continuing to use the site, you agree to this use of cookies and data.
  • In Hungary
  • List of Countries
  • For 7 days
  • Water Temperature
  • Satellite Maps
  • Weather Map
  • News
  • Weather Widgets
  • user-avatar
    Login

    Hourly Weather Jagniowka

    Today, 20 May, Monday

    Time Temperature Precipitation Wind Pressure Humidity
    00:00 +15°C° 0 mm 2 mps 738 mmHg 91%
    01:00 +15°C° 0 mm 2 mps 737 mmHg 91%
    02:00 +14°C° 0 mm 2 mps 737 mmHg 92%
    03:00 +14°C° 0 mm 2 mps 736 mmHg 93%
    04:00 +14°C° 0 mm 2 mps 736 mmHg 94%
    05:00 +16°C° 0 mm 3 mps 736 mmHg 88%
    06:00 +18°C° 0 mm 4 mps 736 mmHg 82%
    07:00 +19°C° 0 mm 5 mps 737 mmHg 76%
    08:00 +21°C° 0 mm 5 mps 737 mmHg 72%
    09:00 +22°C° 0 mm 6 mps 737 mmHg 67%
    10:00 +23°C° 0 mm 6 mps 737 mmHg 63%
    11:00 +23°C° 0 mm 6 mps 737 mmHg 60%
    12:00 +25°C° 0 mm 5 mps 737 mmHg 58%
    13:00 +25°C° 0 mm 5 mps 737 mmHg 56%
    14:00 +25°C° 0 mm 5 mps 737 mmHg 59%
    15:00 +23°C° 0 mm 5 mps 737 mmHg 63%
    16:00 +23°C° 0 mm 4 mps 737 mmHg 66%
    17:00 +21°C° 0 mm 4 mps 737 mmHg 70%
    18:00 +20°C° 0 mm 4 mps 737 mmHg 73%
    19:00 +18°C° 0 mm 4 mps 737 mmHg 76%
    20:00 +17°C° 0 mm 3 mps 737 mmHg 76%
    21:00 +17°C° 0 mm 3 mps 737 mmHg 76%
    22:00 +16°C° 0 mm 2 mps 737 mmHg 76%
    23:00 +16°C° 0 mm 2 mps 737 mmHg 75%

    Tomorrow, 21 May, Tuesday

    Time Temperature Precipitation Wind Pressure Humidity
    00:00 +16°C° 0 mm 2 mps 737 mmHg 74%
    01:00 +16°C° 0 mm 2 mps 737 mmHg 73%
    02:00 +15°C° 0 mm 2 mps 737 mmHg 75%
    03:00 +15°C° 0 mm 2 mps 737 mmHg 77%
    04:00 +14°C° 0 mm 1 mps 737 mmHg 79%
    05:00 +15°C° 0.2 mm 1 mps 737 mmHg 80%
    06:00 +15°C° 0.2 mm 1 mps 737 mmHg 82%
    07:00 +16°C° 0.2 mm 1 mps 737 mmHg 84%
    08:00 +18°C° 0.3 mm 1 mps 737 mmHg 80%
    09:00 +19°C° 0.3 mm 1 mps 737 mmHg 77%
    10:00 +20°C° 0.3 mm 1 mps 737 mmHg 73%
    11:00 +19°C° 1.1 mm 1 mps 737 mmHg 78%
    12:00 +17°C° 1.1 mm 2 mps 737 mmHg 82%
    13:00 +17°C° 1.1 mm 2 mps 737 mmHg 86%
    14:00 +17°C° 0.6 mm 2 mps 737 mmHg 87%
    15:00 +16°C° 0.6 mm 2 mps 737 mmHg 88%
    16:00 +16°C° 0.6 mm 2 mps 737 mmHg 89%
    17:00 +16°C° 0.6 mm 2 mps 737 mmHg 89%
    18:00 +15°C° 0.6 mm 2 mps 738 mmHg 89%
    19:00 +15°C° 0.6 mm 2 mps 738 mmHg 89%
    20:00 +15°C° 0.1 mm 2 mps 738 mmHg 89%
    21:00 +15°C° 0.1 mm 2 mps 738 mmHg 89%
    22:00 +14°C° 0.1 mm 2 mps 738 mmHg 89%
    23:00 +14°C° 0 mm 2 mps 738 mmHg 89%

    Day after tomorrow, 22 May, Wednesday

    Time Temperature Precipitation Wind Pressure Humidity
    00:00 +13°C° 0 mm 2 mps 738 mmHg 90%
    01:00 +13°C° 0 mm 2 mps 738 mmHg 90%
    02:00 +13°C° 0 mm 2 mps 738 mmHg 91%
    03:00 +12°C° 0 mm 2 mps 738 mmHg 91%
    04:00 +12°C° 0 mm 2 mps 738 mmHg 92%
    05:00 +13°C° 0 mm 2 mps 739 mmHg 89%
    06:00 +15°C° 0 mm 2 mps 739 mmHg 87%
    07:00 +16°C° 0 mm 3 mps 739 mmHg 85%
    08:00 +17°C° 0.3 mm 3 mps 739 mmHg 80%
    09:00 +18°C° 0.3 mm 4 mps 739 mmHg 75%
    10:00 +20°C° 0.3 mm 4 mps 739 mmHg 70%
    11:00 +19°C° 0.9 mm 4 mps 739 mmHg 75%
    12:00 +18°C° 0.9 mm 3 mps 739 mmHg 80%
    13:00 +17°C° 0.9 mm 3 mps 739 mmHg 84%
    14:00 +17°C° 0.3 mm 4 mps 739 mmHg 85%
    15:00 +15°C° 0.3 mm 4 mps 739 mmHg 86%
    16:00 +15°C° 0.3 mm 5 mps 739 mmHg 87%
    17:00 +14°C° 0.3 mm 5 mps 739 mmHg 89%
    18:00 +14°C° 0.3 mm 5 mps 739 mmHg 91%
    19:00 +14°C° 0.3 mm 5 mps 740 mmHg 92%
    20:00 +13°C° 0 mm 5 mps 740 mmHg 93%
    21:00 +13°C° 0 mm 5 mps 740 mmHg 93%
    22:00 +12°C° 0 mm 5 mps 741 mmHg 93%
    23:00 +12°C° 0 mm 5 mps 741 mmHg 93%

    23 May, Thursday

    Time Temperature Precipitation Wind Pressure Humidity
    00:00 +12°C° 0 mm 5 mps 741 mmHg 92%
    01:00 +12°C° 0 mm 5 mps 741 mmHg 91%
    02:00 +12°C° 0.6 mm 5 mps 741 mmHg 92%
    03:00 +11°C° 0.6 mm 6 mps 741 mmHg 93%
    04:00 +10°C° 0.6 mm 6 mps 741 mmHg 93%
    05:00 +11°C° 2.5 mm 6 mps 741 mmHg 94%
    06:00 +11°C° 2.5 mm 6 mps 741 mmHg 94%
    07:00 +11°C° 2.5 mm 6 mps 742 mmHg 94%
    08:00 +11°C° 0.4 mm 7 mps 742 mmHg 93%
    09:00 +11°C° 0.4 mm 7 mps 743 mmHg 93%
    10:00 +11°C° 0.4 mm 7 mps 743 mmHg 92%
    11:00 +11°C° 1 mm 7 mps 743 mmHg 92%
    12:00 +10°C° 1 mm 7 mps 744 mmHg 92%
    13:00 +9°C° 1 mm 7 mps 744 mmHg 92%
    14:00 +9°C° 0.3 mm 7 mps 744 mmHg 92%
    15:00 +9°C° 0.3 mm 7 mps 744 mmHg 92%
    16:00 +8°C° 0.3 mm 7 mps 744 mmHg 92%
    17:00 +8°C° 0.3 mm 6 mps 744 mmHg 92%
    18:00 +8°C° 0.3 mm 5 mps 745 mmHg 92%
    19:00 +8°C° 0.3 mm 4 mps 745 mmHg 92%
    20:00 +8°C° 0.5 mm 4 mps 745 mmHg 92%
    21:00 +8°C° 0.5 mm 4 mps 745 mmHg 92%
    22:00 +10°C° 0.5 mm 4 mps 745 mmHg 92%
    23:00 +8°C° 0.1 mm 4 mps 745 mmHg 93%

    24 May, Friday

    Time Temperature Precipitation Wind Pressure Humidity
    00:00 +8°C° 0.1 mm 4 mps 745 mmHg 93%
    01:00 +9°C° 0.1 mm 3 mps 745 mmHg 93%
    02:00 +9°C° 0 mm 3 mps 745 mmHg 93%
    03:00 +9°C° 0 mm 3 mps 745 mmHg 93%
    04:00 +9°C° 0 mm 3 mps 745 mmHg 93%
    05:00 +10°C° 0 mm 3 mps 744 mmHg 91%
    06:00 +10°C° 0 mm 3 mps 744 mmHg 88%
    07:00 +11°C° 0 mm 3 mps 744 mmHg 85%
    08:00 +12°C° 0 mm 3 mps 744 mmHg 78%
    09:00 +14°C° 0 mm 4 mps 744 mmHg 71%
    10:00 +15°C° 0 mm 4 mps 744 mmHg 64%
    11:00 +17°C° 0 mm 3 mps 743 mmHg 60%
    12:00 +17°C° 0 mm 3 mps 743 mmHg 57%
    13:00 +18°C° 0 mm 3 mps 742 mmHg 54%
    14:00 +18°C° 0 mm 2 mps 742 mmHg 54%
    15:00 +18°C° 0 mm 2 mps 742 mmHg 55%
    16:00 +20°C° 0 mm 1 mps 741 mmHg 55%
    17:00 +18°C° 0 mm 1 mps 741 mmHg 59%
    18:00 +16°C° 0 mm 1 mps 741 mmHg 64%
    19:00 +13°C° 0 mm 0 mps 740 mmHg 68%
    20:00 +12°C° 0 mm 0 mps 740 mmHg 72%
    21:00 +12°C° 0 mm 1 mps 740 mmHg 75%
    22:00 +11°C° 0 mm 1 mps 740 mmHg 78%
    23:00 +10°C° 0 mm 1 mps 740 mmHg 80%

    25 May, Saturday

    Time Temperature Precipitation Wind Pressure Humidity
    00:00 +10°C° 0 mm 1 mps 740 mmHg 81%
    01:00 +9°C° 0 mm 1 mps 740 mmHg 83%
    02:00 +9°C° 0 mm 1 mps 740 mmHg 83%
    03:00 +9°C° 0 mm 1 mps 740 mmHg 84%
    04:00 +7°C° 0 mm 0 mps 740 mmHg 85%
    05:00 +9°C° 0 mm 0 mps 740 mmHg 80%
    06:00 +11°C° 0 mm 0 mps 740 mmHg 76%
    07:00 +13°C° 0 mm 0 mps 740 mmHg 71%
    08:00 +15°C° 0 mm 0 mps 740 mmHg 68%
    09:00 +16°C° 0 mm 0 mps 740 mmHg 65%
    10:00 +20°C° 0 mm 1 mps 739 mmHg 61%
    11:00 +21°C° 0 mm 1 mps 739 mmHg 58%
    12:00 +21°C° 0 mm 1 mps 739 mmHg 55%
    13:00 +22°C° 0 mm 1 mps 739 mmHg 52%
    14:00 +22°C° 0 mm 1 mps 739 mmHg 52%
    15:00 +22°C° 0 mm 1 mps 739 mmHg 53%
    16:00 +22°C° 0 mm 1 mps 739 mmHg 53%
    17:00 +20°C° 0 mm 1 mps 739 mmHg 58%
    18:00 +19°C° 0 mm 1 mps 739 mmHg 63%
    19:00 +16°C° 0 mm 1 mps 739 mmHg 67%
    20:00 +15°C° 0 mm 1 mps 740 mmHg 71%
    21:00 +14°C° 0 mm 1 mps 740 mmHg 75%
    22:00 +13°C° 0 mm 1 mps 741 mmHg 79%
    23:00 +13°C° 0 mm 1 mps 741 mmHg 81%
    Show more